Regional Weather Roundup
Issued by NWS Albany, NY

Home | Current Version | Previous Version | Text Only | Print | Product List | Glossary On
Versions: 1 2 3 4 5 6 7 8 9 10 11 12 13 14 15 16 17 18 19 20 21 22 23 24 25 26 27 28 29 30 31 32 33 34 35 36 37 38 39 40 41 42 43 44 45 46 47 48 49 50
000
ASUS41 KALY 181010
RWRALY

NEW YORK STATE HOURLY WEATHER ROUNDUP
NATIONAL WEATHER SERVICE ALBANY NY
500 AM EST SAT NOV 18 2017

NOTE: "FAIR" INDICATES FEW OR NO CLOUDS BELOW 12,000 FEET WITH NO
SIGNIFICANT WEATHER AND/OR NO OBSTRUCTIONS TO VISIBILITY.

NYZ032-033-038>043-046>054-057>066-NYZ062>081-082-084-181100-
EAST


CITY           SKY/WX    TMP DP  RH WIND       PRES   REMARKS
ALBANY         CLOUDY    22  17  81 CALM      29.97F
GLENS FALLS    CLOUDY    17  15  92 CALM      29.96F
POUGHKEEPSIE   CLOUDY    21  16  81 CALM      30.00S
NEWBURGH       CLEAR     23  21  93 CALM      29.99S
MONTGOMERY     CLOUDY    21  18  88 CALM      29.97F
WHITE PLAINS   CLEAR     26  19  74 CALM      29.98S
ISLIP          PTCLDY    26  23  88 CALM      30.00F
NEW YORK CITY  PTCLDY    37  20  50 SW3       30.00S
CENTRAL PARK   CLEAR     36  20  52 CALM      30.02S
$$

NYZ005>009-017-018-044>046-055-056-181100-
CENTRAL


CITY           SKY/WX    TMP DP  RH WIND       PRES   REMARKS
FULTON         CLOUDY    31  24  75 VRB6      29.79F WCI  25
SYRACUSE       CLOUDY    26  21  81 E8        29.81F WCI  18
ROME           PTCLDY    27  21  78 E8        29.89F WCI  19
ELMIRA         CLOUDY    27  24  89 N5        29.81F WCI  22
BINGHAMTON     CLOUDY    28  17  63 S6        29.83F WCI  22
MONTICELLO     CLOUDY    19  17  92 CALM      29.94F
$$

NYZ026>034-041>043-087-181100-
NORTH


CITY           SKY/WX    TMP DP  RH WIND       PRES   REMARKS
WATERTOWN      CLOUDY    29  23  78 E5        29.78F WCI  24
FORT DRUM      NOT AVBL
OGDENSBURG     FAIR      27  23  85 E6        29.83F WCI  20
MASSENA        PTCLDY    23  20  88 NE3       29.89F
SARANAC LAKE   CLOUDY    13  12  96 CALM      29.82F
PLATTSBURGH    MOCLDY    23  17  78 VRB3      29.94F
$$

NYZ001>004-010>016-019>021-085-181100-
WEST


CITY           SKY/WX    TMP DP  RH WIND       PRES   REMARKS
NIAGARA FALLS  CLOUDY    41  28  60 S5        29.67F
BUFFALO        CLOUDY    40  23  50 SW5       29.68F
DUNKIRK        CLOUDY    45  25  45 SW16      29.69S
JAMESTOWN      CLOUDY    41  23  48 S9        29.70F
WELLSVILLE     CLOUDY    42  20  41 SE8       29.73F
ROCHESTER      CLOUDY    35  27  72 SE7       29.71F WCI  29
PENN YAN       CLOUDY    40  24  53 S12G24    29.76F WCI  33
$$

             KEY
       WCI = WIND CHILL INDEX
       VSB = VISIBILITY
       HX  = HEAT INDEX
$$



USA.gov is the U.S. government's official web portal to all federal, state and local government web resources and services.